Location: West Cummington
(42.4920°N, 72.9680°W)
Time: 06:50:34
(UTC-04:00)

ATLAS 2AS CENTAUR R/B - Visible Passes

Search period start: 27 August 2014 00:00
Search period end: 06 September 2014 00:00
Orbit: 919 x 1293 km, 63.7° (Epoch: 22 August)

Date Brightness Start Highest point End Pass type
(mag) Time Alt. Az. Time Alt. Az. Time Alt. Az.
27 Aug 3.4 20:08:10 10° NNW 20:16:04 54° NE 20:23:38 11° ESE visible
27 Aug 3.9 21:59:34 10° NW 22:06:59 42° WSW 22:11:06 24° SSW visible
28 Aug 3.4 21:14:31 10° NW 21:22:28 63° WSW 21:28:09 20° SSE visible
28 Aug 5.2 23:09:28 10° W 23:11:56 12° W 23:14:23 10° WSW visible
29 Aug 3.1 20:29:39 10° NW 20:37:48 89° SW 20:45:17 12° SSE visible
29 Aug 4.9 22:22:19 10° WNW 22:27:48 20° WSW 22:32:45 11° SSW visible
30 Aug 3.2 19:44:54 10° NNW 19:52:57 65° NE 20:00:47 10° SE visible
30 Aug 4.4 21:36:38 10° NW 21:43:32 32° WSW 21:49:58 11° SSW visible
31 Aug 3.8 20:51:26 10° NW 20:59:06 49° WSW 21:06:31 10° S visible
01 Sep 3.3 20:06:28 10° NW 20:14:32 73° WSW 20:22:18 10° SSE visible
01 Sep 5.2 22:00:09 10° WNW 22:04:12 15° WSW 22:08:12 10° SW visible
02 Sep 4.9 21:13:53 10° WNW 21:20:01 25° WSW 21:26:00 10° SSW visible
03 Sep 4.3 20:28:26 10° NW 20:35:41 38° WSW 20:42:42 10° S visible
04 Sep 3.8 19:43:20 10° NW 19:51:12 58° WSW 19:58:48 10° SSE visible
04 Sep 5.7 21:39:52 10° W 21:40:34 10° W 21:41:15 10° WSW visible
05 Sep 5.3 20:51:23 10° WNW 20:56:28 19° WSW 21:01:25 10° SW visible
